Philadelphia, PA

5:36 AM EDT on April 22, 2018 (GMT -0400)
Philadelphia International

Weather History for KPHL - May, 2014

Change the Weather History Date:

Friday, May 2, 2014

  Actual Average Record
Temperature  
Mean Temperature 63 °F 60 °F  
Max Temperature 69 °F 70 °F 89 °F (2010)
Min Temperature 56 °F 50 °F 35 °F (1960)
Degree Days  
Heating Degree Days 2 6  
Month to date heating degree days 2 13  
Since 1 July heating degree days 4798 4503  
Cooling Degree Days 0 1  
Month to date cooling degree days 6 2  
Year to date cooling degree days 15 15  
Growing Degree Days 12 (Base 50)    
Moisture  
Dew Point 37 °F    
Average Humidity 42    
Maximum Humidity 55    
Minimum Humidity 29    
Precipitation  
Precipitation 0.00 in 0.11 in 2.49 in (1989)
Month to date precipitation 0.04 0.21  
Year to date precipitation 19.63 13.24  
Snow  
Snow 0.00 in 0.00 in 0.00 in ()
Month to date snowfall 0.0 0.0  
Since 1 July snowfall 68.0 22.4  
Snow Depth 0.00 in    
Sea Level Pressure  
Sea Level Pressure 29.82 in    
Wind  
Wind Speed 10 mph (West)    
Max Wind Speed 25 mph    
Max Gust Speed 33 mph    
Visibility 10 miles    
Events      
T = Trace of Precipitation, MM = Missing Value Source: NWS Daily Summary

Daily Weather History Graph

Daily Weather History Graph

Search for Another Location

Airport or City:

Astronomy

May. 02, 2014 Rise Set
Actual Time 6:00 AM EDT 7:56 PM EDT
Civil Twilight 5:30 AM EDT 8:25 PM EDT
Nautical Twilight 4:55 AM EDT 9:01 PM EDT
Astronomical Twilight 4:16 AM EDT 9:40 PM EDT
Moon 8:35 AM EDT (5/2) 11:16 PM EDT (5/2)
Length of Visible Light 14h 55m
Length of Day
13h 56m
Waxing Crescent, 12% of the Moon is Illuminated
May 2
Waxing Crescent
May 6
First Quarter
May 14
Full
May 21
Last Quarter
May 28
New

Hourly Weather History & Observations

Time (EDT) Temp. Dew Point Humidity Pressure Visibility Wind Dir Wind Speed Gust Speed Precip Events Conditions
12:54 AM 62.1 °F 45.0 °F 53% 29.77 in 10.0 mi NW 6.9 mph - N/A   Mostly Cloudy
1:54 AM 61.0 °F 39.9 °F 46% 29.78 in 10.0 mi WNW 4.6 mph - N/A   Mostly Cloudy
2:54 AM 61.0 °F 37.9 °F 42% 29.78 in 10.0 mi WNW 5.8 mph - N/A   Mostly Cloudy
3:54 AM 61.0 °F 37.9 °F 42% 29.79 in 10.0 mi West 6.9 mph - N/A   Overcast
4:54 AM 57.0 °F 41.0 °F 55% 29.80 in 10.0 mi West 6.9 mph - N/A   Overcast
5:54 AM 57.9 °F 39.0 °F 49% 29.80 in 10.0 mi WNW 8.1 mph - N/A   Overcast
6:54 AM 57.9 °F 39.9 °F 51% 29.81 in 10.0 mi West 5.8 mph - N/A   Mostly Cloudy
7:54 AM 59.0 °F 39.9 °F 49% 29.81 in 10.0 mi West 5.8 mph - N/A   Mostly Cloudy
8:54 AM 61.0 °F 39.0 °F 44% 29.82 in 10.0 mi SW 9.2 mph - N/A   Scattered Clouds
9:54 AM 63.0 °F 35.1 °F 35% 29.82 in 10.0 mi WSW 8.1 mph - N/A   Scattered Clouds
10:54 AM 66.0 °F 35.1 °F 32% 29.81 in 10.0 mi West 13.8 mph 20.7 mph N/A   Mostly Cloudy
11:54 AM 64.9 °F 34.0 °F 32% 29.81 in 10.0 mi West 13.8 mph - N/A   Mostly Cloudy
12:54 PM 66.0 °F 33.1 °F 29% 29.81 in 10.0 mi WSW 16.1 mph - N/A   Mostly Cloudy
1:54 PM 66.0 °F 36.0 °F 33% 29.81 in 10.0 mi WSW 17.3 mph - N/A   Mostly Cloudy
2:54 PM 66.9 °F 35.1 °F 31% 29.80 in 10.0 mi WSW 19.6 mph 25.3 mph N/A   Mostly Cloudy
3:54 PM 66.9 °F 33.1 °F 28% 29.80 in 10.0 mi West 17.3 mph 25.3 mph N/A   Mostly Cloudy
4:54 PM 68.0 °F 35.1 °F 30% 29.80 in 10.0 mi West 12.7 mph 24.2 mph N/A   Scattered Clouds
5:54 PM 68.0 °F 35.1 °F 30% 29.81 in 10.0 mi West 12.7 mph 21.9 mph N/A   Scattered Clouds
6:54 PM 66.9 °F 34.0 °F 30% 29.83 in 10.0 mi West 13.8 mph - N/A   Scattered Clouds
7:54 PM 64.9 °F 34.0 °F 32% 29.85 in 10.0 mi NW 11.5 mph - N/A   Scattered Clouds
8:54 PM 63.0 °F 35.1 °F 35% 29.87 in 10.0 mi NW 5.8 mph - N/A   Scattered Clouds
9:54 PM 63.0 °F 35.1 °F 35% 29.88 in 10.0 mi WNW 5.8 mph - N/A   Mostly Cloudy
10:54 PM 59.0 °F 37.9 °F 46% 29.89 in 10.0 mi Calm Calm - N/A   Mostly Cloudy
11:54 PM 61.0 °F 34.0 °F 36% 29.88 in 10.0 mi WNW 6.9 mph - N/A   Overcast